User: anonymous   Login
Location: DARK SKY Beskydy - Park tmavé oblohy, www.darkskybeskydy.cz
(49.4926°N, 18.5016°E)
Time: 20:42:40
(UTC+02:00)
Language:

Envisat - Orbit

View from above orbital plane
View from above orbital plane
View from above satellite
View from above satellite

Ground track
Ground track

The orbit data is extracted from the following two-line orbital elements,

1 27386U 02009A   24205.40963282  .00000421  00000-0  15132-3 0  9996
2 27386  98.2844 165.2439 0001395  84.6404  26.0042 14.38612905173786
Epoch (UTC): 23 July 2024 09:49:52
Eccentricity: 0.0001395
inclination: 98.2844°
perigee height: 762 km
apogee height: 764 km
right ascension of ascending node: 165.2439°
argument of perigee: 84.6404°
revolutions per day: 14.38612905
mean anomaly at epoch: 26.0042°
orbit number at epoch: 17378

The dashed part of the orbit path shows where the satellite is in the earth's shadow,  

DLR